[[{"header":{"parameterUnit":"m.s-1","parameterCategory":1,"la1":30.2991,"la2":30.254,"lo1":-89.0895,"lo2":-89.0444,"dy":0.0017,"dx":0.0017,"nx":28,"ny":28,"refTime":"2023-10-17T21:00:00:Z","depth":0,"parameterNumber":2,"parameterNumberName":"U-component_of_WINDS"},"data":[0,0,0,0,0,0,0,0,0,0,0,0,0,0,0,0,0,0,0,0,0,0,0,0,0,0,0,0,0,0,0,0,0,0,0,0,0,0,0,0,0,0,0,0,0,0,0,0,0,0,0,0,0,0,0,0,0,0,-1.2068,-1.2068,0,-1.2071,-1.2071,-1.2071,-1.206,-1.206,-1.2059,-1.2059,-1.2061,-1.2062,-1.2062,0,0,0,0,0,0,0,0,0,0,0,0,0,-1.2054,-1.2054,-1.2068,-1.2068,-1.2068,-1.2071,-1.2071,-1.2071,-1.206,-1.206,-1.2059,-1.2059,-1.2061,-1.2061,-1.2062,0,0,0,0,0,0,0,0,0,0,0,0,0,-1.2059,-1.2054,-1.2068,-1.2063,-1.2063,-1.2071,-1.2071,-1.2071,-1.206,-1.206,-1.2059,-1.2059,-1.2061,-1.2061,-1.2062,-1.2075,0,0,-1.2064,-1.2064,0,0,0,0,0,0,0,0,-1.2058,-1.2059,-1.2064,-1.2063,-1.2063,-1.2065,-1.2067,-1.2073,-1.206,-1.2061,-1.2059,-1.2058,-1.2063,-1.2063,-1.2065,-1.2075,-1.2075,-1.2064,-1.2064,-1.2064,-1.2064,0,0,0,0,0,0,0,-1.2058,-1.2059,-1.2069,-1.2064,-1.2063,-1.2061,-1.2061,-1.2068,-1.2065,-1.2061,-1.206,-1.2061,-1.2062,-1.2064,-1.2065,-1.2076,-1.2064,-1.2064,-1.2065,-1.2065,-1.2099,-1.2099,0,0,0,0,0,0,-1.2058,-1.2059,-1.2069,-1.2069,-1.2059,-1.2062,-1.2062,-1.2065,-1.2064,-1.2064,-1.2061,-1.206,-1.2063,-1.2064,-1.2065,-1.2081,-1.2064,-1.2065,-1.2065,-1.2098,-1.2099,-1.21,0,0,0,0,0,0,-1.2058,-1.2059,-1.2069,-1.2064,-1.2065,-1.2062,-1.2066,-1.2065,-1.2067,-1.2065,-1.2064,-1.2063,-1.2063,-1.2064,-1.2073,-1.208,-1.2065,-1.2066,-1.2098,-1.2099,-1.2099,-1.2112,0,0,0,0,0,0,-1.2058,-1.2059,-1.2064,-1.2064,-1.2065,-1.2077,-1.2066,-1.2065,-1.2068,-1.2067,-1.2067,-1.2066,-1.2063,-1.2072,-1.2074,-1.2081,-1.2066,-1.2097,-1.2098,-1.2099,-1.2111,-1.2114,-1.2116,0,0,0,0,0,-1.2057,-1.2067,-1.2064,-1.2065,-1.2071,-1.2078,-1.2078,-1.2074,-1.2068,-1.2073,-1.2072,-1.2066,-1.208,-1.2073,-1.2075,-1.2082,-1.2096,-1.2098,-1.2099,-1.211,-1.2113,-1.2116,0,0,0,0,0,0,-1.2067,-1.2067,-1.2064,-1.2074,-1.2076,-1.2076,-1.2081,-1.2077,-1.2081,-1.2079,-1.2074,-1.2075,-1.2085,-1.2085,-1.2077,-1.2096,-1.2087,-1.2089,-1.2095,-1.2098,-1.21,-1.2099,-1.2066,0,0,0,0,0,-1.207,-1.2076,-1.2075,-1.2085,-1.2086,-1.2084,-1.2086,-1.2084,-1.2085,-1.2086,-1.2085,-1.2087,-1.2092,-1.2095,-1.21,-1.2112,-1.2112,-1.2118,-1.212,-1.2122,-1.2123,-1.213,-1.2133,-1.2104,-1.2104,-1.2104,0,0,-1.2077,-1.2078,-1.2081,-1.2087,-1.2088,-1.2094,-1.2084,-1.2091,-1.2095,-1.2087,-1.2095,-1.2096,-1.2098,-1.2109,-1.2113,-1.2109,-1.2132,-1.2124,-1.2125,-1.2125,-1.2132,-1.2135,-1.2137,-1.2105,-1.2105,-1.2105,0,0,-1.2092,-1.2093,-1.2101,-1.2103,-1.2106,-1.2105,-1.2107,-1.2108,-1.2108,-1.2117,-1.2111,-1.2117,-1.2125,-1.2127,-1.2129,-1.2148,-1.2143,-1.215,-1.2161,-1.2168,-1.217,-1.2172,-1.2179,-1.2181,-1.2151,-1.2151,-1.2151,0,-1.21,-1.2109,-1.2106,-1.2113,-1.2116,-1.211,-1.2119,-1.2121,-1.2124,-1.2126,-1.2122,-1.2133,-1.2134,-1.2146,-1.2151,-1.2153,-1.2155,-1.2149,-1.217,-1.2172,-1.2174,-1.218,-1.2183,-1.2152,-1.2152,-1.2152,-1.2152,0,-1.2118,-1.2125,-1.2131,-1.2135,-1.2139,-1.2147,-1.2146,-1.215,-1.2148,-1.2147,-1.2157,-1.2159,-1.2164,-1.2167,-1.2164,-1.2179,-1.2176,-1.2171,-1.2161,-1.2177,-1.2183,-1.2186,-1.2153,-1.2153,-1.2153,-1.2153,0,0,-1.2137,-1.2142,-1.2144,-1.2147,-1.215,-1.2155,-1.2163,-1.2169,-1.2173,-1.2176,-1.2183,-1.2192,-1.2188,-1.219,-1.2188,-1.2195,-1.221,-1.2189,-1.2189,-1.2192,-1.2226,-1.2229,-1.2232,-1.2207,-1.2208,-1.2208,-1.2226,0,-1.2152,-1.2165,-1.2164,-1.2178,-1.2184,-1.218,-1.2187,-1.219,-1.2191,-1.2197,-1.2198,-1.2204,-1.2198,-1.22,-1.2206,-1.2207,-1.2216,-1.2206,-1.2213,-1.2213,-1.2211,-1.2235,-1.2238,-1.2254,-1.2228,-1.2229,-1.2229,0,-1.217,-1.2175,-1.2189,-1.2193,-1.2195,-1.2202,-1.2208,-1.2213,-1.2218,-1.2218,-1.2222,-1.2219,-1.2228,-1.2221,-1.2233,-1.2226,-1.2229,-1.223,-1.2231,-1.223,-1.2221,-1.2234,-1.2259,-1.2261,-1.2232,-1.2232,-1.2232,0,-1.2181,-1.2192,-1.2202,-1.2204,-1.2209,-1.2214,-1.2217,-1.2221,-1.2224,-1.223,-1.2233,-1.2239,-1.2242,-1.2248,-1.2247,-1.2242,-1.226,-1.2252,-1.226,-1.226,-1.2263,-1.2262,-1.2288,-1.2267,-1.2267,-1.2267,-1.2267,0,-1.2197,-1.2206,-1.2207,-1.2213,-1.2223,-1.2223,-1.2233,-1.2235,-1.2239,-1.2245,-1.2243,-1.2249,-1.2249,-1.2256,-1.2256,-1.2266,-1.2268,-1.2269,-1.2268,-1.2268,-1.2268,-1.2269,-1.2267,-1.2268,-1.2268,-1.2268,-1.2267,0,-1.2211,-1.2212,-1.2223,-1.2228,-1.2229,-1.2236,-1.224,-1.2246,-1.2248,-1.2257,-1.2259,-1.2261,-1.2269,-1.227,-1.2279,-1.2279,-1.2292,-1.2291,-1.229,-1.2289,-1.2297,-1.2296,-1.2323,-1.2327,-1.2305,-1.2305,-1.2305,0,-1.222,-1.2226,-1.2233,-1.2237,-1.224,-1.2247,-1.2252,-1.2252,-1.2257,-1.2264,-1.2269,-1.2277,-1.2283,-1.2296,-1.2299,-1.2306,-1.2305,-1.2314,-1.2306,-1.2306,-1.2304,-1.2303,-1.2304,-1.2315,-1.2315,-1.2315,-1.2316,0,-1.2236,-1.2237,-1.2243,-1.2251,-1.2256,-1.2262,-1.2267,-1.2271,-1.2273,-1.2279,-1.2287,-1.2292,-1.2302,-1.231,-1.2318,-1.2321,-1.2318,-1.2319,-1.2321,-1.232,-1.2319,-1.2319,-1.2293,-1.2317,-1.2317,-1.2317,-1.2317,-1.2317,-1.2247,-1.2253,-1.2259,-1.2266,-1.2271,-1.2277,-1.2283,-1.2286,-1.2293,-1.2301,-1.2302,-1.2311,-1.2317,-1.2327,-1.2331,-1.2339,-1.2335,-1.2339,-1.2339,-1.234,-1.234,-1.2319,-1.234,-1.234,-1.234,-1.234,-1.234,0,-1.2262,-1.2266,-1.2274,-1.2282,-1.2288,-1.2287,-1.2293,-1.2299,-1.2307,-1.2313,-1.232,-1.233,-1.2338,-1.2343,-1.2351,-1.2356,-1.2356,-1.2358,-1.2357,-1.2358,-1.2343,-1.234,-1.2359,-1.2359,-1.2359,-1.2359,-1.2359,-1.2359,-1.2271,-1.2281,-1.2283,-1.2296,-1.23,-1.231,-1.2314,-1.2319,-1.2324,-1.2336,-1.2343,-1.2346,-1.2351,-1.236,-1.2368,-1.2369,-1.2372,-1.2375,-1.2376,-1.2361,-1.2359,-1.2357,-1.2354,-1.2376,-1.2376,-1.2391,-1.2391,-1.2391]},{"header":{"parameterUnit":"m.s-1","parameterCategory":1,"la1":30.2991,"la2":30.254,"lo1":-89.0895,"lo2":-89.0444,"dy":0.0017,"dx":0.0017,"nx":28,"ny":28,"refTime":"2023-10-17T21:00:00:Z","depth":0,"parameterNumber":3,"parameterNumberName":"V-component_of_WINDS"},"data":[0,0,0,0,0,0,0,0,0,0,0,0,0,0,0,0,0,0,0,0,0,0,0,0,0,0,0,0,0,0,0,0,0,0,0,0,0,0,0,0,0,0,0,0,0,0,0,0,0,0,0,0,0,0,0,0,0,0,2.7479,2.7479,0,2.7436,2.7435,2.7435,2.7458,2.746,2.7461,2.7462,2.7412,2.7409,2.7407,0,0,0,0,0,0,0,0,0,0,0,0,0,2.7578,2.7576,2.7479,2.7479,2.7478,2.7436,2.7435,2.7434,2.7458,2.746,2.7461,2.7462,2.7412,2.741,2.7407,0,0,0,0,0,0,0,0,0,0,0,0,0,2.7535,2.7576,2.7479,2.7485,2.7485,2.7436,2.7435,2.7434,2.7458,2.746,2.7461,2.7463,2.7413,2.741,2.7406,2.7347,0,0,2.7395,2.7393,0,0,0,0,0,0,0,0,2.7537,2.7531,2.7485,2.7484,2.7484,2.7454,2.7452,2.7405,2.7457,2.7468,2.7462,2.7464,2.7424,2.742,2.7407,2.7345,2.7343,2.7395,2.7392,2.7391,2.739,0,0,0,0,0,0,0,2.754,2.7533,2.7462,2.7484,2.7484,2.7488,2.7484,2.7443,2.7436,2.7467,2.7469,2.7464,2.7424,2.7411,2.7406,2.7342,2.7395,2.7391,2.7389,2.7388,2.7229,2.7227,0,0,0,0,0,0,2.7544,2.7535,2.7463,2.746,2.7516,2.7485,2.748,2.7462,2.7437,2.7435,2.7462,2.7465,2.7416,2.741,2.7405,2.7334,2.7391,2.7387,2.7385,2.7231,2.7228,2.7226,0,0,0,0,0,0,2.7546,2.7537,2.7465,2.7498,2.749,2.7481,2.7461,2.746,2.7447,2.7433,2.7431,2.745,2.7417,2.741,2.7362,2.7332,2.7386,2.7382,2.7233,2.723,2.7227,2.7192,0,0,0,0,0,0,2.7548,2.7537,2.7516,2.7498,2.7488,2.7424,2.7459,2.7458,2.7441,2.7444,2.7421,2.7419,2.7418,2.7367,2.7358,2.7328,2.7379,2.7236,2.7232,2.7228,2.7196,2.7188,2.7182,0,0,0,0,0,2.7552,2.7506,2.7515,2.7506,2.7461,2.7422,2.7416,2.7418,2.7439,2.7416,2.7408,2.742,2.7337,2.7362,2.7352,2.7321,2.7238,2.7233,2.7229,2.7199,2.719,2.7182,0,0,0,0,0,0,2.7519,2.7504,2.7513,2.7461,2.7443,2.7427,2.7398,2.7408,2.7383,2.7386,2.7388,2.7383,2.7333,2.7322,2.735,2.7262,2.729,2.7284,2.7271,2.7262,2.7255,2.7259,2.7376,0,0,0,0,0,2.7506,2.7478,2.7466,2.7421,2.7411,2.7406,2.739,2.7393,2.7373,2.7365,2.7353,2.7332,2.7302,2.7281,2.7253,2.7194,2.7189,2.7168,2.7161,2.7155,2.7149,2.7118,2.7108,2.7211,2.7211,2.7212,0,0,2.7478,2.7467,2.7448,2.7414,2.74,2.7369,2.74,2.7365,2.7342,2.7359,2.7314,2.7304,2.7281,2.7228,2.7204,2.7217,2.712,2.715,2.7145,2.7142,2.7112,2.7102,2.7093,2.7208,2.7209,2.7209,0,0,2.7412,2.7401,2.7363,2.7349,2.7329,2.7326,2.7317,2.7299,2.7294,2.7249,2.7261,2.7233,2.718,2.7163,2.7148,2.7077,2.7087,2.7067,2.703,2.6999,2.6991,2.6984,2.6958,2.6949,2.7061,2.7061,2.7061,0,2.738,2.7336,2.7341,2.7307,2.7291,2.7307,2.7268,2.7253,2.7224,2.7212,2.7228,2.7163,2.7149,2.7092,2.7075,2.7062,2.705,2.7069,2.6992,2.6985,2.6978,2.6954,2.6944,2.7059,2.7059,2.7059,2.7059,0,2.7297,2.7266,2.7237,2.7211,2.7191,2.7154,2.7153,2.7132,2.7137,2.7132,2.7086,2.7069,2.7038,2.7025,2.7028,2.6968,2.6977,2.6993,2.7021,2.6966,2.6943,2.6934,2.7056,2.7056,2.7057,2.7058,0,0,2.7208,2.7186,2.7176,2.7164,2.7144,2.7119,2.7082,2.7053,2.7036,2.7015,2.6984,2.6939,2.6954,2.6936,2.6938,2.6911,2.6856,2.693,2.693,2.6917,2.6788,2.6777,2.6766,2.6863,2.6861,2.686,2.679,0,2.714,2.7079,2.7083,2.7024,2.6995,2.7011,2.6979,2.6962,2.6956,2.693,2.6923,2.6892,2.6913,2.6903,2.6877,2.6868,2.683,2.6873,2.6832,2.6831,2.6837,2.6754,2.6741,2.6676,2.6781,2.678,2.6779,0,2.7053,2.7032,2.6971,2.6956,2.6943,2.6915,2.6889,2.6864,2.6845,2.6843,2.6824,2.683,2.6792,2.6822,2.6768,2.6798,2.6781,2.6774,2.6772,2.6767,2.6801,2.6747,2.6656,2.6646,2.6764,2.6766,2.6767,0,2.6995,2.695,2.6908,2.6898,2.6879,2.6858,2.6849,2.6832,2.6815,2.6791,2.678,2.6752,2.6736,2.6713,2.6712,2.6734,2.6657,2.6687,2.6654,2.6654,2.6636,2.6637,2.6541,2.6626,2.6626,2.6627,2.6627,0,2.6919,2.688,2.6882,2.6856,2.6813,2.6818,2.6775,2.6768,2.6752,2.6724,2.6735,2.6708,2.6708,2.668,2.6678,2.6634,2.6627,2.6623,2.6623,2.6622,2.6622,2.6611,2.6615,2.6624,2.6624,2.6625,2.6625,0,2.6845,2.6845,2.68,2.6787,2.6782,2.6751,2.6739,2.6713,2.671,2.6674,2.6666,2.6659,2.6626,2.6623,2.6584,2.6583,2.653,2.6535,2.6537,2.6538,2.6504,2.6507,2.6397,2.6382,2.6477,2.6476,2.6475,0,2.6797,2.6768,2.6752,2.6735,2.6726,2.6697,2.668,2.6684,2.6665,2.6642,2.6619,2.6588,2.6564,2.6511,2.6501,2.6472,2.6476,2.6439,2.6471,2.6471,2.6475,2.6477,2.6474,2.6433,2.6432,2.6431,2.643,0,2.6711,2.6712,2.6688,2.6664,2.6644,2.6624,2.6606,2.6591,2.6592,2.657,2.6538,2.652,2.6482,2.6451,2.6422,2.6411,2.642,2.642,2.6411,2.6409,2.6412,2.641,2.652,2.6423,2.6423,2.6424,2.6424,2.6425,2.6648,2.6624,2.6609,2.6582,2.6569,2.6552,2.6528,2.6522,2.6496,2.6467,2.647,2.6434,2.6416,2.6379,2.6366,2.6337,2.6349,2.6335,2.6332,2.6328,2.6325,2.6417,2.6332,2.6332,2.6332,2.6332,2.6332,0,2.6562,2.6554,2.6529,2.6505,2.6483,2.6496,2.6477,2.6457,2.6427,2.641,2.6386,2.635,2.632,2.6309,2.6279,2.6258,2.6262,2.625,2.6252,2.6249,2.6316,2.6327,2.6248,2.6248,2.6248,2.6248,2.6248,2.6248,2.6515,2.6475,2.6475,2.6427,2.6419,2.6386,2.6374,2.6358,2.6345,2.6304,2.628,2.6274,2.6259,2.6229,2.6201,2.6199,2.6187,2.6174,2.6173,2.6236,2.6244,2.6252,2.6263,2.6171,2.6171,2.6108,2.6107,2.6107]}]]